Regional Weather Roundup
Issued by NWS

Home | Current Version | Previous Version | Text Only | Print | Product List | Glossary Off
Versions: 1 2 3 4 5 6 7 8 9 10 11 12 13 14 15 16 17 18 19 20 21 22 23 24 25 26 27 28 29 30 31 32 33 34 35 36 37 38 39 40 41 42 43 44 45 46 47 48 49 50

000
ASUS43 KFSD 232110
RWRSD

WEATHER ROUNDUP FOR SOUTH DAKOTA
NATIONAL WEATHER SERVICE SIOUX FALLS SD
300 PM CST THU FEB 23 2017

NOTE: "FAIR" INDICATES FEW OR NO CLOUDS BELOW 12,000 FEET WITH NO
SIGNIFICANT WEATHER AND/OR OBSTRUCTIONS TO VISIBILITY.


SDZ001>005-009-010-012>017-232200-
NORTHWEST AND NORTH CENTRAL SOUTH DAKOTA

CITY           SKY/WX    TMP DP  RH WIND       PRES   REMARKS
BUFFALO          N/A     30  24  78 NE17      29.87S WCI  18
FAITH            N/A     31  24  75 NE15      29.92S WCI  20
MOBRIDGE       CLOUDY    34  23  64 NE17      29.95S WCI  23
$$

SDZ012>016-024>037-041>051-057-063-072>074-232200-
SOUTHWEST AND SOUTH CENTRAL SOUTH DAKOTA

CITY           SKY/WX    TMP DP  RH WIND       PRES   REMARKS
RAPID CTY ARPT LGT SNOW  27  23  85 N14       29.87S VSB 1   WCI  16
PIERRE         CLOUDY    30  23  75 NE18      29.92R WCI  18
CUSTER         LGT SNOW  19  13  77 NE14      29.72R VSB 1   WCI   6
ELLSWORTH AFB  LGT SNOW  27  27 100 N12       29.87  FOG     WCI  16
PHILIP         LGT SNOW  31  24  75 NE22      29.89S WCI  18
PINE RIDGE     LGT SNOW  26  23  88 NE16      29.78R VSB 3/4 WCI  14
SPEARFISH      LGT SNOW  25  23  93 E12       29.86S WCI  14
WINNER         SNOW      30  27  88 N21       29.82F VSB 1/2 WCI  17
$$

SDZ004>011-016>023-039-040-232200-
NORTHEAST SOUTH DAKOTA

CITY           SKY/WX    TMP DP  RH WIND       PRES   REMARKS
ABERDEEN       CLOUDY    29  20  69 NE20      29.98R WCI  16
WATERTOWN      CLOUDY    29  21  72 NE22      29.89F WCI  15
BROOKINGS      CLOUDY    30  25  80 NE14      29.86S WCI  20
SISSETON         N/A     30  24  78 NE20      29.97F WCI  17
$$

SDZ017-020-022-023-036>040-048>070-232200-
SOUTHEAST SOUTH DAKOTA

CITY           SKY/WX    TMP DP  RH WIND       PRES   REMARKS
SIOUX FALLS    LGT SNOW  30  29  96 NE17      29.84R VSB 3/4 WCI  18
HURON          CLOUDY    32  23  69 NE20G25   29.92R WCI  20
CHAMBERLAIN    LGT SNOW  32  29  88 N13G20    29.87F WCI  22
MITCHELL       LGT SNOW  31  29  92 NE18      29.88F FOG     WCI  19
YANKTON        MOSUNNY   30  27  86 N28G33    29.75F WCI  16
$$

ABBREVIATIONS USED IN REMARKS
   TC - TEMPERATURE IN CELSIUS
  WCI - WIND CHILL INDEX
   HX - HEAT INDEX
  VSB - VISIBILITY




USA.gov is the U.S. government's official web portal to all federal, state and local government web resources and services.